TimeEDT,TemperatureF,Dew PointF,Humidity,Sea Level PressureIn,VisibilityMPH,Wind Direction,Wind SpeedMPH,Gust SpeedMPH,PrecipitationIn,Events,Conditions,WindDirDegrees,DateUTC
12:05 AM,64.4,64.4,100,29.95,10.0,SSW,8.1,-,N/A,,Clear,210,2013-06-27 04:05:00
12:25 AM,64.4,64.4,100,29.95,10.0,SW,5.8,-,N/A,,Clear,220,2013-06-27 04:25:00
12:45 AM,64.4,64.4,100,29.95,7.0,SSW,6.9,-,N/A,,Clear,210,2013-06-27 04:45:00
1:05 AM,64.4,64.4,100,29.95,7.0,SSW,6.9,-,N/A,,Clear,200,2013-06-27 05:05:00
1:25 AM,62.6,62.6,100,29.95,7.0,South,6.9,-,N/A,,Clear,190,2013-06-27 05:25:00
1:45 AM,62.6,62.6,100,29.95,5.0,South,6.9,-,N/A,,Clear,180,2013-06-27 05:45:00
2:05 AM,62.6,62.6,100,29.94,7.0,South,8.1,-,N/A,,Clear,190,2013-06-27 06:05:00
2:25 AM,64.4,64.4,100,29.93,10.0,SW,8.1,-,N/A,,Clear,220,2013-06-27 06:25:00
2:45 AM,64.4,64.4,100,29.93,10.0,SW,6.9,-,N/A,,Scattered Clouds,220,2013-06-27 06:45:00
3:05 AM,64.4,64.4,100,29.91,10.0,SSW,5.8,-,N/A,,Clear,210,2013-06-27 07:05:00
3:25 AM,64.4,64.4,100,29.91,10.0,SSW,6.9,-,N/A,,Clear,210,2013-06-27 07:25:00
3:45 AM,64.4,64.4,100,29.90,10.0,SW,6.9,-,N/A,,Clear,220,2013-06-27 07:45:00
4:10 AM,64.4,64.4,100,29.89,10.0,SW,5.8,-,N/A,,Clear,220,2013-06-27 08:10:00
4:30 AM,64.4,64.4,100,29.89,10.0,SW,5.8,-,N/A,,Scattered Clouds,220,2013-06-27 08:30:00
4:50 AM,64.4,64.4,100,29.89,10.0,SSW,6.9,-,N/A,,Mostly Cloudy,210,2013-06-27 08:50:00
5:10 AM,62.6,62.6,100,29.89,10.0,South,4.6,-,N/A,,Overcast,190,2013-06-27 09:10:00
5:30 AM,62.6,62.6,100,29.88,10.0,SE,3.5,-,N/A,,Overcast,140,2013-06-27 09:30:00
5:50 AM,62.6,62.6,100,29.88,10.0,SE,3.5,-,N/A,,Mostly Cloudy,140,2013-06-27 09:50:00
6:10 AM,62.6,62.6,100,29.88,7.0,SE,4.6,-,N/A,,Scattered Clouds,130,2013-06-27 10:10:00
6:30 AM,62.6,62.6,100,29.87,10.0,SE,5.8,-,N/A,,Scattered Clouds,130,2013-06-27 10:30:00
6:50 AM,62.6,62.6,100,29.87,10.0,ESE,9.2,-,N/A,,Clear,120,2013-06-27 10:50:00
7:10 AM,64.4,64.4,100,29.87,10.0,SE,5.8,-,N/A,,Mostly Cloudy,130,2013-06-27 11:10:00
7:30 AM,62.6,62.6,100,29.87,7.0,SE,5.8,-,N/A,,Overcast,130,2013-06-27 11:30:00
7:50 AM,62.6,62.6,100,29.86,10.0,ESE,8.1,-,N/A,,Overcast,120,2013-06-27 11:50:00
8:10 AM,62.6,62.6,100,29.85,10.0,ESE,8.1,-,N/A,,Overcast,110,2013-06-27 12:10:00
8:30 AM,64.4,64.4,100,29.84,10.0,ESE,6.9,-,N/A,,Overcast,110,2013-06-27 12:30:00
8:50 AM,64.4,64.4,100,29.84,5.0,ESE,9.2,-,N/A,,Overcast,120,2013-06-27 12:50:00
9:10 AM,62.6,62.6,100,29.86,0.2,South,4.6,-,N/A,Fog,Fog,170,2013-06-27 13:10:00
9:30 AM,62.6,62.6,100,29.85,5.0,SE,6.9,-,N/A,,Overcast,130,2013-06-27 13:30:00
9:50 AM,62.6,62.6,100,29.84,1.8,SE,5.8,-,N/A,,Overcast,130,2013-06-27 13:50:00
10:10 AM,62.6,62.6,100,29.83,1.0,SE,5.8,-,N/A,,Overcast,130,2013-06-27 14:10:00
10:30 AM,62.6,62.6,100,29.84,1.0,South,3.5,-,N/A,,Overcast,180,2013-06-27 14:30:00
10:50 AM,62.6,62.6,100,29.84,1.0,Calm,Calm,-,N/A,,Overcast,0,2013-06-27 14:50:00
11:10 AM,64.4,64.4,100,29.83,1.2,SW,3.5,-,N/A,,Overcast,230,2013-06-27 15:10:00
11:30 AM,64.4,64.4,100,29.84,1.5,WSW,4.6,-,N/A,,Overcast,240,2013-06-27 15:30:00
11:50 AM,62.6,62.6,100,29.84,1.5,West,6.9,-,N/A,,Overcast,270,2013-06-27 15:50:00
12:10 PM,62.6,62.6,100,29.84,2.5,West,4.6,-,N/A,,Overcast,270,2013-06-27 16:10:00
12:30 PM,62.6,62.6,100,29.83,1.0,WSW,5.8,-,N/A,,Overcast,240,2013-06-27 16:30:00
12:50 PM,62.6,62.6,100,29.83,2.0,West,8.1,-,N/A,,Overcast,260,2013-06-27 16:50:00
1:10 PM,62.6,62.6,100,29.82,2.5,West,8.1,-,N/A,,Overcast,270,2013-06-27 17:10:00
1:30 PM,62.6,62.6,100,29.82,10.0,West,9.2,-,N/A,,Overcast,280,2013-06-27 17:30:00
1:50 PM,62.6,62.6,100,29.81,3.0,West,8.1,-,N/A,,Overcast,270,2013-06-27 17:50:00
2:10 PM,62.6,62.6,100,29.81,2.5,WSW,8.1,-,N/A,,Overcast,250,2013-06-27 18:10:00
2:30 PM,62.6,62.6,100,29.80,2.0,WSW,9.2,19.6,N/A,,Overcast,250,2013-06-27 18:30:00
2:50 PM,62.6,62.6,100,29.81,5.0,WSW,12.7,23.0,N/A,,Overcast,250,2013-06-27 18:50:00
3:10 PM,62.6,62.6,100,29.81,4.0,WSW,9.2,21.9,N/A,,Overcast,250,2013-06-27 19:10:00
3:30 PM,62.6,62.6,100,29.81,3.0,West,9.2,16.1,N/A,,Overcast,260,2013-06-27 19:30:00
3:50 PM,62.6,62.6,100,29.81,7.0,WSW,11.5,17.3,N/A,,Overcast,250,2013-06-27 19:50:00
4:10 PM,62.6,62.6,100,29.79,10.0,WSW,6.9,16.1,N/A,,Overcast,240,2013-06-27 20:10:00
4:30 PM,62.6,62.6,100,29.79,10.0,WSW,10.4,17.3,N/A,,Overcast,250,2013-06-27 20:30:00
4:50 PM,62.6,62.6,100,29.79,4.0,West,9.2,-,N/A,,Overcast,260,2013-06-27 20:50:00
5:10 PM,62.6,62.6,100,29.78,1.0,WSW,9.2,-,N/A,,Overcast,250,2013-06-27 21:10:00
5:30 PM,62.6,62.6,100,29.77,1.5,West,13.8,19.6,N/A,,Overcast,260,2013-06-27 21:30:00
5:50 PM,62.6,62.6,100,29.77,1.2,West,11.5,18.4,N/A,,Overcast,260,2013-06-27 21:50:00
6:10 PM,62.6,62.6,100,29.77,0.5,West,9.2,-,N/A,Fog,Fog,260,2013-06-27 22:10:00
6:30 PM,62.6,62.6,100,29.77,0.2,West,8.1,17.3,N/A,Fog,Fog,260,2013-06-27 22:30:00
6:50 PM,62.6,62.6,100,29.78,0.2,West,6.9,-,N/A,Fog,Fog,260,2013-06-27 22:50:00
7:10 PM,62.6,62.6,100,29.78,0.2,West,11.5,16.1,N/A,Fog,Fog,260,2013-06-27 23:10:00
7:30 PM,62.6,62.6,100,29.78,0.2,WSW,8.1,18.4,N/A,Fog,Fog,250,2013-06-27 23:30:00
7:50 PM,62.6,62.6,100,29.78,0.2,West,8.1,16.1,N/A,Fog,Fog,260,2013-06-27 23:50:00
8:10 PM,62.6,62.6,100,29.78,0.2,West,8.1,-,N/A,Fog,Fog,270,2013-06-28 00:10:00
8:30 PM,62.6,62.6,100,29.79,1.8,West,8.1,18.4,N/A,,Overcast,260,2013-06-28 00:30:00
8:50 PM,62.6,62.6,100,29.78,0.8,West,8.1,18.4,N/A,,Overcast,260,2013-06-28 00:50:00
9:10 PM,62.6,62.6,100,29.77,1.2,West,11.5,19.6,N/A,,Overcast,260,2013-06-28 01:10:00
9:30 PM,62.6,62.6,100,29.77,2.5,West,10.4,19.6,N/A,,Overcast,260,2013-06-28 01:30:00
9:50 PM,62.6,62.6,100,29.78,1.2,West,9.2,-,N/A,,Overcast,260,2013-06-28 01:50:00
10:10 PM,62.6,62.6,100,29.77,0.5,West,12.7,17.3,N/A,Fog,Fog,260,2013-06-28 02:10:00
10:30 PM,62.6,62.6,100,29.78,1.2,West,8.1,18.4,N/A,,Overcast,260,2013-06-28 02:30:00
10:50 PM,62.6,62.6,100,29.78,2.5,WSW,11.5,17.3,N/A,,Overcast,250,2013-06-28 02:50:00
11:10 PM,62.6,62.6,100,29.77,1.5,WSW,12.7,18.4,N/A,,Overcast,250,2013-06-28 03:10:00
11:30 PM,62.6,62.6,100,29.77,1.8,WSW,13.8,20.7,N/A,,Overcast,250,2013-06-28 03:30:00
11:50 PM,62.6,62.6,100,29.77,2.5,West,9.2,19.6,N/A,,Overcast,260,2013-06-28 03:50:00